Date String (YYYY-MM-DD hh:mm:ss) UTC,Instrument flags,absolute air pressure of the measurement (hPa),sample flow rate (lpm),inlet stack bypass flow (lpm),air temperature of the measurement (°C),ambient temperature measured by the external sensor (°C),aerosol sample conditioner tube jacket temperature (°C),OPC LED temperature (°C),internal box temperature (°C),relative humidity of the measurement (%),span deviation,mass concentration of particles derived from Lorenz-Mie calculation of OPC scattering (μg/m³),mass concentration of particles derived from Lorenz-Mie calculation of OPC scattering (μg/m³),mass concentration of particles derived from Lorenz-Mie calculation of OPC scattering (μg/m³)
DateTimeUTC,F1_M11,P_M11,Q1_M11,Q2_M11,T1_M11,T2_M11,T3_M11,T4_M11,T5_M11,U1_M11,ZSPAN_M11,X0_M11,X2_M11,X1_M11
2023-08-10 11:00:00,SystemResetWarning,0828.2,5.00,000.00,029.6,028.1,000.0,038.3,031.2,22.8,0000.0,0014.37,0005.91,0005.31
2023-08-10 11:01:00,SystemResetWarning,0828.3,5.00,000.00,029.6,028.1,000.0,038.3,031.2,22.7,0000.0,0014.33,0005.93,0005.32
2023-08-10 11:02:00,SystemResetWarning,0828.3,5.00,000.00,029.6,028.2,000.0,038.3,031.2,22.9,0000.0,0013.93,0005.93,0005.32
2023-08-10 11:03:00,SystemResetWarning,0828.3,5.00,000.00,029.6,028.2,000.0,038.3,031.2,22.7,0000.0,0014.69,0005.94,0005.34
2023-08-10 11:04:00,SystemResetWarning,0828.4,5.00,000.00,029.7,028.3,000.0,038.3,031.3,22.6,0000.0,0014.55,0005.94,0005.36
2023-08-10 11:05:00,SystemResetWarning,0828.3,5.00,000.00,029.7,028.3,000.0,038.3,031.3,22.6,0000.0,0013.14,0005.92,0005.36
2023-08-10 11:06:00,SystemResetWarning,0828.3,5.00,000.00,029.7,028.4,000.0,038.3,031.3,22.5,0000.0,0011.94,0005.96,0005.37
2023-08-10 11:07:00,SystemResetWarning,0828.3,5.00,000.00,029.7,028.4,000.0,038.3,031.3,22.4,0000.0,0011.78,0006.00,0005.38
2023-08-10 11:08:00,SystemResetWarning,0828.3,5.01,000.00,029.7,028.4,000.0,038.3,031.3,22.5,0000.0,0011.20,0006.00,0005.39
2023-08-10 11:09:00,SystemResetWarning,0828.3,5.00,000.00,029.7,028.4,000.0,038.3,031.3,22.6,0000.0,0011.39,0006.05,0005.40
2023-08-10 11:10:00,SystemResetWarning,0828.3,5.00,000.00,029.8,028.5,000.0,038.4,031.4,22.4,0000.0,0011.90,0006.08,0005.41
2023-08-10 11:11:00,SystemResetWarning,0828.3,5.00,000.00,029.8,028.5,000.0,038.4,031.4,22.5,0000.0,0011.91,0006.12,0005.41
2023-08-10 11:12:00,SystemResetWarning,0828.3,5.00,000.00,029.8,028.5,000.0,038.4,031.4,22.5,0000.0,0011.72,0006.13,0005.42
2023-08-10 11:13:00,SystemResetWarning,0828.4,5.01,000.00,029.8,028.5,000.0,038.4,031.4,22.5,0000.0,0012.21,0006.17,0005.44
2023-08-10 11:14:00,SystemResetWarning,0828.4,5.00,000.00,029.8,028.6,000.0,038.4,031.4,22.4,0000.0,0012.33,0006.21,0005.44
2023-08-10 11:15:00,SystemResetWarning,0828.4,4.99,000.00,029.8,028.6,000.0,038.4,031.4,22.3,0000.0,0012.24,0006.24,0005.43
2023-08-10 11:16:00,SystemResetWarning,0828.4,4.99,000.00,029.9,028.6,000.0,038.5,031.5,22.4,0000.0,0012.65,0006.28,0005.44
2023-08-10 11:17:00,SystemResetWarning,0828.5,4.99,000.00,029.9,028.6,000.0,038.5,031.5,22.5,0000.0,0012.83,0006.26,0005.44
2023-08-10 11:18:00,SystemResetWarning,0828.5,4.99,000.00,029.9,028.6,000.0,038.5,031.5,22.4,0000.0,0013.23,0006.24,0005.44
2023-08-10 11:19:00,SystemResetWarning,0828.5,5.00,000.00,029.9,028.6,000.0,038.5,031.5,22.6,0000.0,0014.20,0006.26,0005.45
2023-08-10 11:20:00,SystemResetWarning,0828.4,5.00,000.00,029.9,028.6,000.0,038.5,031.5,22.6,0000.0,0014.75,0006.24,0005.45
2023-08-10 11:21:00,SystemResetWarning,0828.4,5.00,000.00,029.9,028.7,000.0,038.5,031.5,22.6,0000.0,0014.88,0006.25,0005.45
2023-08-10 11:22:00,SystemResetWarning,0828.4,5.01,000.00,030.0,028.7,000.0,038.5,031.6,22.6,0000.0,0014.55,0006.27,0005.48
2023-08-10 11:23:00,SystemResetWarning,0828.4,5.01,000.00,030.0,028.7,000.0,038.6,031.6,22.6,0000.0,0014.39,0006.28,0005.48
2023-08-10 11:24:00,SystemResetWarning,0828.5,5.00,000.00,030.0,028.7,000.0,038.6,031.6,22.4,0000.0,0013.87,0006.25,0005.48
2023-08-10 11:25:00,SystemResetWarning,0828.4,5.00,000.00,030.0,028.8,000.0,038.6,031.6,22.4,0000.0,0013.35,0006.26,0005.50
2023-08-10 11:26:00,SystemResetWarning,0828.4,4.98,000.00,030.0,027.7,000.0,038.5,031.5,22.4,0000.0,0012.97,0006.25,0005.51
2023-08-10 11:27:00,SystemResetWarning,0828.3,5.01,000.00,029.9,025.8,000.0,038.4,031.2,22.4,0000.0,0013.18,0006.20,0005.51
2023-08-10 11:28:00,SystemResetWarning,0828.4,5.00,000.00,029.8,025.3,000.0,038.3,030.9,22.4,0000.0,0014.34,0006.19,0005.51
2023-08-10 11:29:00,SystemResetWarning,0828.4,4.99,000.00,029.7,025.5,000.0,038.3,030.7,22.7,0000.1,0014.44,0006.19,0005.52
2023-08-10 11:30:00,SystemResetWarning,0828.5,5.00,000.00,029.6,025.9,000.0,038.3,030.8,22.8,0001.0,0013.56,0006.18,0005.53
2023-08-10 11:31:00,SystemResetWarning,0828.5,5.00,000.00,029.6,026.3,000.0,038.3,030.9,22.9,0000.9,0013.30,0006.15,0005.54
2023-08-10 11:32:00,SystemResetWarning,0828.6,5.01,000.00,029.6,026.7,000.0,038.3,030.9,23.0,0000.7,0012.80,0006.14,0005.54
2023-08-10 11:33:00,SystemResetWarning,0828.5,5.00,000.00,029.5,027.0,000.0,038.3,031.0,22.9,0000.5,0013.17,0006.13,0005.54
2023-08-10 11:34:00,SystemResetWarning,0828.4,4.99,000.00,029.5,027.3,000.0,038.3,031.1,23.0,0000.6,0013.26,0006.13,0005.53
2023-08-10 11:35:00,SystemResetWarning,0828.4,5.00,000.00,029.5,027.5,000.0,038.3,031.1,23.0,0000.6,0013.25,0006.14,0005.54
2023-08-10 11:36:00,SystemResetWarning,0828.4,5.01,000.00,029.6,027.7,000.0,038.3,031.1,22.9,0000.4,0014.11,0006.15,0005.53
2023-08-10 11:37:00,SystemResetWarning,0828.6,5.00,000.00,029.6,027.9,000.0,038.3,031.2,22.9,0000.1,0014.60,0006.18,0005.53
2023-08-10 11:38:00,SystemResetWarning,0828.5,5.01,000.00,029.6,028.0,000.0,038.3,031.2,22.9,0000.3,0014.44,0006.19,0005.52
2023-08-10 11:39:00,SystemResetWarning,0828.5,5.00,000.00,029.6,028.1,000.0,038.3,031.2,22.8,0000.6,0014.05,0006.20,0005.52
2023-08-10 11:40:00,SystemResetWarning,0828.6,4.99,000.00,029.6,028.2,000.0,038.3,031.3,22.8,0000.0,0013.30,0006.21,0005.52
2023-08-10 11:41:00,SystemResetWarning,0828.6,4.99,000.00,029.6,028.3,000.0,038.3,031.3,22.7,0000.1,0013.41,0006.22,0005.52
2023-08-10 11:42:00,SystemResetWarning,0828.5,5.01,000.00,029.7,028.3,000.0,038.3,031.3,22.8,0000.3,0013.38,0006.24,0005.51
2023-08-10 11:43:00,SystemResetWarning,0828.6,5.01,000.00,029.7,028.4,000.0,038.3,031.3,23.0,0000.0,0014.56,0006.24,0005.50
2023-08-10 11:44:00,SystemResetWarning,0828.6,5.00,000.00,029.7,028.4,000.0,038.3,031.3,22.8,0000.0,0014.38,0006.21,0005.49
2023-08-10 11:45:00,SystemResetWarning,0828.5,5.00,000.00,029.7,028.4,000.0,038.3,031.3,22.7,0000.0,0014.75,0006.21,0005.51
2023-08-10 11:46:00,SystemResetWarning,0828.4,4.99,000.00,029.7,028.5,000.0,038.3,031.4,22.6,0000.0,0014.87,0006.25,0005.51
2023-08-10 11:47:00,SystemResetWarning,0828.4,4.99,000.00,029.8,028.5,000.0,038.3,031.4,22.5,0000.1,0014.32,0006.25,0005.51
2023-08-10 11:48:00,SystemResetWarning,0828.4,5.01,000.00,029.8,028.5,000.0,038.4,031.4,22.7,0000.7,0013.62,0006.21,0005.51
2023-08-10 11:49:00,SystemResetWarning,0828.6,5.01,000.00,029.8,028.6,000.0,038.4,031.4,22.9,0000.5,0013.40,0006.19,0005.52
2023-08-10 11:50:00,SystemResetWarning,0828.8,5.01,000.00,029.8,028.6,000.0,038.4,031.4,23.1,-000.3,0013.02,0006.18,0005.51
2023-08-10 11:51:00,SystemResetWarning,0828.7,4.99,000.00,029.8,028.6,000.0,038.4,031.4,23.5,-000.7,0013.16,0006.22,0005.51
2023-08-10 11:52:00,SystemResetWarning,0828.6,5.00,000.00,029.8,028.6,000.0,038.4,031.5,22.9,-001.2,0013.36,0006.23,0005.51
2023-08-10 11:53:00,SystemResetWarning,0828.6,5.00,000.00,029.9,028.6,000.0,038.4,031.5,22.7,-001.4,0013.19,0006.22,0005.52
2023-08-10 11:54:00,SystemResetWarning,0828.6,5.01,000.00,029.9,028.7,000.0,038.5,031.5,22.7,-001.0,0011.96,0006.24,0005.53
2023-08-10 11:55:00,SystemResetWarning,0828.6,5.01,000.00,029.9,028.7,000.0,038.5,031.5,22.6,-001.2,0012.44,0006.28,0005.53
2023-08-10 11:56:00,SystemResetWarning,0828.6,4.99,000.00,029.9,028.7,000.0,038.5,031.5,22.5,-001.2,0012.99,0006.26,0005.51
2023-08-10 11:57:00,SystemResetWarning,0828.7,4.99,000.00,029.9,028.7,000.0,038.5,031.6,22.6,-000.3,0013.65,0006.24,0005.51
2023-08-10 11:58:00,SystemResetWarning,0828.8,4.99,000.00,030.0,028.7,000.0,038.5,031.6,23.1,0000.2,0013.81,0006.24,0005.51
2023-08-10 11:59:00,SystemResetWarning,0828.8,5.00,000.00,030.0,028.7,000.0,038.5,031.6,22.8,-000.1,0014.23,0006.25,0005.51
